Satellite-Ground Cal/Val Site Overpasses Predictions

Prediction of Satellite NPP Overpassing Cal/Val Site: Antarctic Dome C

Ground Cal/Val Site Location: Latitude: -75.10, Longitude: 123.35; Satellite-Ground Site NADIR distance within 100 km.

Table of predicted overpasses for the next 14.0 days since TLE Epoch: 7/7/2017
Interval Starting Time Ending Time Minimum Distance Time Minimum Distance (km)
1 07/08/2017 14:54:36 07/08/2017 14:55:05 07/08/2017 14:54:51 19.43
2 07/09/2017 14:35:55 07/09/2017 14:36:09 07/09/2017 14:36:02 87.48
3 07/10/2017 07:37:26 07/10/2017 07:37:54 07/10/2017 07:37:40 32.39
4 07/11/2017 07:18:41 07/11/2017 07:18:59 07/11/2017 07:18:50 77.86
5 07/13/2017 15:00:55 07/13/2017 15:01:19 07/13/2017 15:01:07 56.23
6 07/14/2017 14:42:04 07/14/2017 14:42:29 07/14/2017 14:42:16 52.85
7 07/15/2017 07:43:45 07/15/2017 07:44:06 07/15/2017 07:43:55 67.50
8 07/16/2017 07:24:53 07/16/2017 07:25:20 07/16/2017 07:25:06 40.64
9 07/18/2017 15:07:18 07/18/2017 15:07:27 07/18/2017 15:07:23 93.72
10 07/19/2017 14:48:17 07/19/2017 14:48:46 07/19/2017 14:48:32 17.45


NCC Satellite Cal/Val Overpasses Prediction Service
